CAPE
0 0 0 0 0 0 0 0 0 203 466 231 536 432 367 433 591 594 457 1136 1176 646 680 667 949 947 735 594 863 758 687 178 62 16 12 24 15 0 0 0 0 0 0 0 0 0 0 0 40 192 353 238 317 514 333 339 464 924 1092 1252 1570 1750 2063 2194 2203 2335 1859 1937 2753 2437 1293 1942 1946 2288 2008 1962 2241 2474 1575 2014 2724 3379 2967 3815 3540 3590
0 0 0 0 0 0 0 0 0 1 2 432 105 501 582 408 404 398 606 928 1151 564 494 740 709 618 750 580 913 953 646 206 41 21 11 2 2 0 0 0 0 0 0 0 0 0 0 0 1 98 238 566 330 478 474 520 560 1208 936 956 1077 1485 1899 1910 1949 2291 2243 2322 1932 2017 2904 1749 2179 2264 2490 2544 1979 1940 1709 3519 3610 3493 3122 3620 3995 4402
0 0 0 0 0 0 0 0 0 4 6 494 195 444 550 487 527 556 893 702 652 648 485 744 1078 1045 798 554 602 831 746 214 149 58 61 39 17 23 0 2 0 0 0 0 0 0 0 0 0 25 351 497 459 479 550 645 582 1069 1180 1849 2025 1647 1733 1884 1986 2678 2824 2891 1857 1618 2098 2461 2245 2050 1909 1552 2037 1966 2096 2395 2945 3707 3756 3865 3744 4292
0 0 0 0 0 0 0 0 9 7 1 240 333 325 598 652 548 373 438 886 790 1047 1266 910 571 979 1204 1214 1065 308 600 935 891 710 151 139 28 10 0 0 0 0 0 0 0 0 0 0 0 23 266 332 530 542 575 674 693 742 1773 2027 2269 2084 1881 2571 2556 3024 2324 3038 2810 2915 1685 2587 2094 2000 2203 2358 2120 2208 1742 2023 3074 3547 3803 3759 3531 3143
0 0 0 0 0 0 1 1 4 2 0 272 77 400 516 615 550 499 637 776 723 514 604 420 724 396 768 915 873 1125 1053 968 1100 336 594 133 120 56 22 0 0 0 0 0 0 0 0 0 0 0 287 359 578 454 514 668 548 736 1015 1738 2267 2381 2594 2942 3056 3199 3568 3242 2959 2992 2617 2940 2614 2976 2574 2398 2276 1937 2136 2264 3170 2863 3367 3436 2986 2889
0 0 0 0 0 0 4 1 4 2 4 453 61 344 616 924 34 396 655 502 437 502 443 530 225 384 623 1043 1288 1282 968 1001 695 430 398 266 116 49 18 6 0 18 6 0 0 0 0 0 0 1 202 378 546 442 481 600 478 811 1094 1566 2388 2532 2479 2695 2750 3428 3846 3662 3318 3318 2832 2528 3136 2946 2532 2591 2292 2156 2161 1776 1640 2606 2591 2526 3031 3315
0 0 0 0 0 0 2 0 0 4 6 3 343 170 606 786 584 626 445 239 329 178 624 632 136 65 558 688 1146 1331 1222 1375 1005 652 461 863 824 114 38 11 1 0 0 0 0 0 0 0 0 0 189 363 333 485 476 544 510 1116 1227 1690 2057 2406 2576 2548 3179 3367 3769 3250 3266 2763 2250 2353 2517 2943 2768 3761 4058 2030 2276 4091 2147 2612 2434 3112 2347 2770
0 0 0 0 0 0 0 0 0 11 14 0 271 206 413 589 502 526 472 326 325 329 396 523 588 361 213 481 755 1244 1383 1471 1518 1050 778 970 668 445 68 49 38 14 2 0 1 0 9 4 4 2 138 242 385 341 339 463 467 1806 2235 2116 2338 2374 2538 2450 2959 3091 3645 3514 3336 2786 2393 2972 2521 1853 3154 3574 3394 2572 3286 3324 3056 2536 3865 3308 3650 2971
0 0 0 0 0 0 0 0 0 6 13 2 0 118 712 437 516 575 408 808 587 272 179 246 359 223 298 274 539 981 850 1402 1772 1433 1038 827 559 644 541 110 142 34 21 2 0 4 16 32 22 72 125 192 226 212 299 326 724 1530 1952 2417 2391 2415 2881 2921 2873 3109 3198 3656 3770 3189 3070 3439 2595 2308 3195 3187 2829 2766 2717 2782 3258 4321 3090 3674 3790 3797
0 0 0 0 0 0 0 0 0 11 13 4 0 0 208 408 250 437 375 333 46 295 301 415 346 138 282 1042 808 1010 1127 965 1304 1565 1484 869 673 587 383 350 218 159 39 7 9 8 29 56 55 91 122 127 144 262 189 206 597 1278 1882 2290 2522 2370 2720 2739 2871 3042 3370 3465 3614 3058 3218 3049 2964 2979 4073 4062 3906 4482 4455 3461 3285 3665 3499 2600 3756 3759
0 0 0 0 0 0 0 2 6 0 0 0 0 0 0 21 354 600 309 268 146 184 1 194 474 247 301 670 804 647 746 872 960 1652 1677 897 950 875 882 604 562 478 319 188 71 40 24 48 97 114 94 105 130 215 210 282 777 1184 1671 2009 2410 2624 2499 2757 2830 2862 2932 3151 3569 3316 3376 3119 2407 2996 3036 3282 3440 4383 4105 4401 3520 4180 4437 4673 3195 2752
0 0 0 0 0 0 0 0 3 0 0 0 1 1 0 3 3 12 559 346 245 184 0 2 322 200 36 69 695 997 1015 776 940 1369 1497 1349 1160 1183 1250 620 484 421 382 312 140 47 47 121 146 140 178 96 184 233 210 291 467 981 1816 2174 2723 2725 2927 2838 2451 2737 2400 2672 3171 3738 3711 3233 2695 2958 2639 3280 2908 3898 4004 4074 4016 3781 4197 3607 3293 4231
0 0 0 0 0 0 0 0 12 0 3 0 0 5 0 184 37 198 318 16 95 176 324 204 232 258 171 270 609 739 770 829 866 714 955 1012 1008 1188 1168 969 788 453 505 374 265 132 84 112 151 173 334 522 586 662 354 274 428 1461 1822 2248 2647 2819 2949 3074 2546 2846 2523 2807 2911 3637 3103 2979 3524 3631 2672 3197 3570 3336 3288 3086 3167 4517 4815 3895 3257 3095
0 0 0 0 0 0 0 0 1 0 9 0 0 3 0 2 88 65 5 91 33 44 485 458 426 596 762 480 308 513 550 497 483 514 1160 1123 1054 1099 1154 1094 544 731 539 283 220 130 205 221 194 321 377 514 356 338 349 249 919 1422 1501 2301 2356 2772 3058 3098 2737 2755 2514 2732 3177 3321 3115 2562 3122 2509 3115 3345 2844 2501 3945 3483 3579 3132 3391 3364 3169 2716
0 0 0 0 0 0 0 0 13 3 6 0 0 0 4 5 28 102 17 55 146 171 14 157 51 506 377 1104 677 793 607 666 594 546 788 1120 1066 1143 1194 1398 944 650 480 776 365 315 187 188 256 316 458 283 325 245 458 419 1185 1486 2073 2506 2885 2874 2910 3102 2896 2865 2654 2482 2725 3184 2783 3160 2602 2535 2553 3012 2910 2661 2598 2640 2646 3300 2612 2833 3395 3794
0 0 0 0 0 0 0 0 0 2 11 2 0 0 0 12 1 4 406 86 130 224 203 150 210 582 614 480 328 725 678 390 375 577 1151 1108 1170 1211 1471 1455 930 606 754 546 589 568 232 403 403 348 557 496 448 602 579 520 1326 1353 1979 2478 2698 2703 2604 2784 2917 2766 2786 2927 2405 3026 3276 3465 3085 3300 2789 3340 3836 3623 2759 2507 2629 3646 3337 4141 3951 3179
7 1 0 0 0 0 0 0 0 0 2 2 0 0 0 2 3 9 60 9 3 1 4 240 137 530 388 390 425 392 407 499 650 834 854 946 1002 1328 1348 1263 1136 581 800 852 933 885 740 776 423 532 527 483 298 272 463 1032 1480 2098 2276 2240 2677 2785 2486 2226 2590 2405 2556 2827 2832 2700 2589 2999 2706 2756 2482 2406 2343 2322 2018 2662 2488 2431 2976 3086 3372 2663
0 1 8 4 0 0 0 0 0 1 1 0 0 0 0 2 20 12 13 19 5 20 238 83 97 60 209 112 459 540 498 692 463 696 1036 1194 1361 1270 1156 1271 1371 1145 1063 1125 1243 1240 930 896 788 783 757 751 360 217 840 1790 1484 2230 2138 2247 1944 2574 2642 2006 2014 1638 2270 2812 2547 2750 2439 2558 2576 2205 1960 2022 2230 2016 2513 2460 2684 2104 2241 2208 2116 1799
1 0 3 0 0 0 0 0 0 0 0 0 0 2 0 0 0 3 2 6 7 36 73 6 0 284 449 186 320 151 421 662 726 1012 965 1258 1283 1217 1008 1094 1238 1016 975 1537 2164 1675 1143 1161 1003 1108 1166 1085 962 918 1125 1734 1573 1723 1665 1555 1866 2158 2029 1450 1467 1657 2114 2071 1746 1767 2001 1458 1909 1567 1765 1827 2083 1961 2028 1741 1592 1707 2244 1523 2495 2907
0 1 2 2 0 1 0 0 0 0 0 0 0 0 0 0 2 33 2 6 45 135 4 34 10 47 59 181 390 698 493 566 625 514 822 1016 1318 1287 1332 1303 1547 1942 1688 1813 1022 875 858 794 1022 1122 1162 1299 1421 1365 1092 1351 647 694 1062 1218 1618 1930 2164 1639 1237 1624 1270 1581 1466 1231 2001 2385 2476 2627 1803 2156 2154 1581 1574 1876 1395 1329 1837 1806 2041 961
0 0 0 2 0 0 2 0 0 0 0 0 0 0 0 0 0 0 0 2 9 216 111 11 118 224 123 528 595 474 625 1063 564 920 1281 1418 1364 1370 1295 1323 1775 1971 1115 1832 3320 1530 1612 961 574 1227 1466 2057 1571 1386 1320 1311 1012 1043 1028 1149 1686 1770 1154 960 627 1161 1402 1552 1933 2079 1772 1636 1938 1515 1401 956 1412 1557 1752 1562 1750 1128 601 1663 1628 1722
3 0 2 3 0 0 0 0 0 0 0 0 0 0 0 2 0 0 2 0 8 22 48 9 55 539 632 1400 1274 544 510 312 660 1194 1503 1374 1470 1485 1213 1209 1876 1962 2265 2514 1765 1849 742 845 577 1113 1319 714 1129 1256 1524 1305 1471 1486 1132 725 1109 386 877 695 975 1266 1472 1426 1622 1384 1722 1686 1245 1549 1508 1112 1062 1419 1174 834 1228 1448 1467 820 1331 1459
0 0 0 0 14 6 1 0 0 0 0 0 0 0 0 3 13 8 3 15 2 3 13 16 104 274 542 1137 899 871 728 804 1223 1200 1346 1359 1202 1022 1099 1622 2074 1819 1593 1416 1713 1680 1864 764 1410 976 693 1420 1076 1557 1644 1572 1935 1619 2493 4310 2623 1507 1589 1198 1450 2064 2186 2016 1975 1844 1824 1668 1762 1520 1112 770 582 645 675 788 861 1254 1148 871 793 1324
0 0 0 0 0 0 0 12 0 0 0 0 0 0 1 6 1 0 1 2 12 5 18 40 13 441 549 850 1350 871 1355 998 1242 905 702 993 1340 1062 1516 1536 1354 1269 1112 1072 1315 1223 1436 1507 1787 1650 1756 1942 1666 1164 736 1097 2104 3122 2957 3552 2416 2254 2464 2068 2347 2450 2495 1877 1801 1584 1711 1613 1789 1107 1024 714 542 360 302 309 464 774 809 782 681 790
0 3 0 0 1 1 1 0 0 0 0 0 0 0 0 0 1 0 0 30 7 29 18 40 19 14 844 921 946 650 928 690 725 939 1470 1380 978 1111 1330 1254 1044 1120 1218 1240 1679 1769 1838 2539 2110 1352 1730 1660 1451 1373 1550 874 1348 1586 2506 1992 2348 1335 1029 2625 2503 2390 2485 1864 1405 1285 1409 1150 1284 886 1480 1614 1252 365 254 165 126 289 416 523 535 464
0 7 25 19 17 9 8 18 11 3 0 0 0 0 0 0 1 8 0 34 0 142 9 30 39 518 1088 1297 991 486 559 468 503 834 1160 1096 1205 1074 1014 969 1157 1142 1127 1312 1481 1135 1217 1176 1651 1687 1899 1733 1588 1839 2232 2245 1694 2023 2566 2348 2423 2029 2197 1975 3119 2819 2520 2176 1696 1646 1136 591 519 839 1113 1407 1230 1000 196 130 146 126 116 160 356 681
0 22 35 31 20 32 71 117 32 18 4 0 0 0 0 0 0 0 6 2 3 2 3 506 581 783 834 1226 723 545 574 623 459 805 949 1213 1066 1065 1227 1276 908 1013 1007 1217 1459 1124 996 957 1121 1595 1780 1390 1574 1647 2346 2724 2546 2488 2579 2995 3093 3005 2404 2355 3138 4257 3845 3349 2288 2040 1507 796 716 538 808 1457 1687 1562 925 337 115 48 73 158 252 280
0 0 44 56 58 51 16 26 0 16 5 1 0 0 0 0 0 0 0 0 331 13 17 778 922 1008 493 764 596 599 655 772 625 907 741 903 1244 1014 896 1038 1276 1287 1246 1208 1098 1155 1066 1004 898 1173 1369 2080 2427 2244 2016 2474 2168 2485 2552 3003 3118 3299 2618 2390 2267 4104 4596 3763 3524 3752 2838 2070 1545 1920 2180 2333 2275 2199 2048 1600 1145 790 485 131 168 146
0 3 51 18 34 17 6 0 6 0 0 1 1 0 0 0 0 0 0 0 2 8 819 898 472 483 500 767 476 532 933 1160 1123 1373 1245 984 842 886 789 1179 1239 1165 1246 1148 1112 933 962 968 1200 873 735 1567 2062 1786 1991 2023 2637 2473 2484 2443 2484 2081 2616 3027 2873 3006 2975 3325 3440 3463 3451 3108 3058 2769 2914 2953 2924 2788 2687 2544 1675 1586 1492 1109 673 64
0 0 0 0 0 0 0 2 0 0 0 1 3 0 0 0 0 0 0 0 0 77 1894 1424 1098 788 729 654 1198 1215 1127 1333 1303 1273 1337 1179 853 718 819 988 950 1038 1088 1139 1410 1401 1515 1495 1729 1731 1548 1901 1774 1604 1818 2189 2494 1995 2513 2242 2017 2012 2348 3095 3192 3178 3115 3355 3532 3456 3450 3444 3052 2586 2798 3130 3202 3329 3145 2814 2934 2469 2800 3075 3119 1994
0 20 28 11 0 0 23 17 0 0 0 0 2 38 479 549 432 0 0 1 2 26 909 816 1173 1202 1338 1281 1399 1404 1259 1232 1153 1166 1157 1205 1137 786 594 670 636 779 871 1210 1519 1061 1352 1286 1532 1595 1659 1658 1496 1771 1597 1618 1755 1805 1758 1837 2039 2164 2884 2762 2550 2886 2804 3021 3131 3285 3257 3276 2957 3108 3263 3366 3383 3609 3964 3711 3591 3383 3258 3237 3107 3548
1 14 31 26 8 55 49 55 260 0 0 1 242 351 462 455 566 514 574 292 107 178 414 594 1074 986 1091 1510 1557 1477 1269 1281 1146 1126 1107 796 973 882 570 832 1026 988 939 1310 973 1203 1186 1524 1490 1473 1535 1560 1379 1484 1479 1282 1687 1546 1581 1595 1550 1789 2040 1941 1692 1836 1919 2033 2444 2842 2765 2700 2590 2667 2563 2573 2665 2707 2822 3002 3049 2941 2763 2632 2699 3010
0 5 180 259 80 58 73 137 11 387 95 5 186 202 304 526 527 604 366 275 303 400 298 84 805 1074 918 1100 1296 1226 1053 1057 893 960 1132 1069 975 805 1143 973 913 796 739 776 1186 1163 967 1021 1055 1068 1000 1040 1012 1063 1068 1223 1224 1206 1144 1136 1173 1543 1540 1527 1844 1918 1864 1562 1540 1439 1469 1775 1991 1863 1918 2091 2041 2141 2206 2433 2487 2626 2385 1843 1622 2279
0 0 80 97 56 6 109 27 14 131 205 75 132 217 367 410 444 477 451 503 555 595 632 674 902 1086 978 992 943 850 988 1085 1003 971 1010 954 935 914 975 714 563 778 915 898 907 906 847 817 772 745 753 707 741 806 842 954 1177 1218 1082 1015 1039 1055 895 838 878 982 988 1059 1145 1293 1524 1447 1573 1330 1395 1375 1613 2092 2185 2043 1957 2051 1930 1644 1740 1924
0 2 55 74 9 21 136 51 53 20 98 26 184 64 235 245 239 354 387 396 562 694 594 587 691 875 705 794 774 991 1001 1091 1109 1042 1042 990 893 864 487 519 781 1059 879 725 704 692 655 652 596 606 604 628 640 657 633 719 767 811 837 813 843 813 793 747 820 905 955 964 954 944 938 1055 1129 1115 1045 1159 1413 1456 1620 1619 1601 1435 1666 2084 1928 1884
0 30 52 47 25 96 113 292 0 11 12 5 3 89 34 50 181 190 302 386 498 456 451 478 660 832 990 894 825 900 1028 841 1043 877 840 684 680 492 613 944 918 950 877 690 602 615 588 590 571 570 627 629 597 619 602 606 638 669 679 644 662 742 726 672 693 677 737 794 771 782 839 900 964 985 934 975 1015 966 920 908 935 979 1138 1276 1285 1422
0 350 65 239 227 6 43 39 176 171 220 118 8 0 135 289 111 231 274 401 441 419 328 395 447 623 596 570 726 723 748 754 752 725 650 548 608 563 711 872 943 863 762 655 589 587 542 524 585 616 620 582 568 510 518 500 490 513 494 487 490 459 449 418 512 646 648 665 696 656 700 738 711 776 772 754 750 778 748 683 754 885 916 977 1056 1477
0 0 421 93 458 196 104 15 72 37 89 17 25 1 0 2 53 161 210 22 244 332 264 221 346 137 445 320 342 575 466 549 669 607 477 492 459 649 685 737 684 609 579 508 581 645 610 547 583 564 566 484 518 476 435 463 467 452 415 396 386 382 368 368 395 448 538 573 578 624 599 612 632 684 727 680 690 682 701 653 615 794 903 899 974 1112
0 200 324 21 77 35 46 20 10 21 58 196 165 16 21 0 0 122 50 3 68 228 301 154 262 400 349 423 386 513 391 564 581 554 416 406 355 442 571 639 573 555 532 512 528 484 405 446 462 428 447 426 351 363 329 364 372 331 311 315 320 360 360 362 389 403 411 414 398 530 506 500 500 536 604 582 555 576 565 605 622 633 655 616 587 800
0 119 36 8 97 108 141 84 5 167 2 371 147 65 0 32 39 0 10 53 24 85 363 568 680 581 483 402 377 55 320 404 347 398 393 296 218 381 368 319 335 323 302 310 354 369 309 234 221 292 259 323 402 478 462 358 252 219 206 244 327 374 362 367 391 343 235 10 286 420 484 468 461 495 504 515 506 521 332 339 373 312 305 319 462 517
0 11 91 77 58 41 62 21 96 54 1 41 224 27 213 91 48 6 30 36 100 154 292 544 832 900 932 829 619 599 278 571 465 214 163 135 225 203 206 231 196 285 266 196 138 126 97 152 150 54 207 232 243 293 265 170 19 0 78 170 240 311 299 274 281 276 237 221 301 327 252 261 359 418 373 300 327 345 272 269 286 270 299 316 331 324
21 22 188 99 281 201 590 184 164 15 0 4 213 255 315 451 416 108 0 54 206 327 143 441 727 877 1065 1084 792 580 773 409 274 210 144 156 160 156 279 214 128 23 7 36 122 103 0 0 0 0 12 163 187 238 232 219 183 163 0 71 169 240 318 300 229 221 218 240 253 198 0 180 259 331 348 294 260 324 298 264 246 251 227 222 214 239
34 111 140 246 65 6 143 107 36 1 355 108 194 349 508 324 26 220 101 186 389 263 331 300 422 564 466 903 644 522 347 252 323 76 51 117 108 144 223 194 125 80 14 0 0 56 49 0 0 0 50 69 140 124 114 206 325 348 252 109 6 142 237 330 314 254 203 208 228 174 119 0 110 265 267 246 141 14 209 249 234 208 197 214 224 190
52 48 169 117 34 14 3 0 53 463 203 214 420 511 443 442 280 272 211 145 280 281 267 404 597 600 622 645 683 636 372 447 320 168 177 165 127 122 212 175 141 92 19 0 0 38 0 0 0 0 0 0 0 84 119 188 295 310 278 207 157 151 158 202 267 273 254 231 218 207 182 181 114 120 25 66 75 0 143 194 216 194 180 194 203 206
172 421 296 308 343 231 30 328 232 265 75 56 168 217 203 158 101 92 150 257 240 408 388 382 394 489 524 586 463 499 442 421 250 187 222 165 142 113 154 229 178 147 15 0 0 0 0 0 0 0 0 0 0 0 102 148 177 208 226 246 208 173 181 207 228 235 239 246 213 190 126 158 172 73 0 103 90 0 138 188 183 169 160 169 189 222
324 370 585 391 350 335 198 195 250 216 256 188 127 94 55 34 53 125 157 179 152 308 434 497 199 275 489 763 709 577 432 361 396 239 202 168 126 164 240 162 218 188 43 2 2 0 0 0 0 0 0 0 0 0 54 114 138 178 244 246 238 210 141 130 86 95 170 206 223 210 176 134 142 146 143 156 148 121 18 36 118 129 145 157 171 161
0 0 42 33 198 190 145 184 162 111 63 28 11 21 37 33 53 63 65 65 87 189 251 218 299 350 429 712 955 854 632 638 309 317 217 134 126 145 122 113 246 233 89 11 2 0 0 0 0 0 0 0 0 0 0 0 0 18 144 201 223 226 179 102 24 0 0 106 144 157 146 169 162 152 169 172 178 151 109 88 111 122 107 0 0 146
22 0 36 36 99 122 283 259 141 96 77 63 54 17 20 6 8 33 96 59 37 16 30 100 168 220 215 422 596 759 842 712 637 508 306 285 210 300 281 177 296 100 131 116 31 36 1 0 0 0 0 0 0 0 0 0 0 0 0 0 0 68 123 122 89 24 0 0 0 93 99 87 88 137 154 120 100 119 139 124 109 112 106 92 17 0
110 0 82 72 325 380 327 131 55 106 66 283 289 235 165 70 2 28 21 12 7 74 49 0 9 45 137 294 276 433 381 813 553 386 349 279 336 348 428 338 198 130 90 19 2 4 0 0 0 0 0 0 0 0 0 0 0 0 0 0 0 0 0 3 81 78 24 0 0 0 0 21 71 109 118 94 100 65 95 117 7 0 3 0 0 0
6 14 167 52 163 92 55 108 70 63 47 147 155 80 64 90 105 23 19 11 4 3 111 154 42 16 42 74 270 432 542 570 650 773 486 357 353 549 536 510 352 392 174 40 22 13 0 0 0 0 0 0 0 0 0 0 0 0 0 0 0 0 0 0 0 0 0 0 0 0 0 0 0 0 33 49 44 76 81 74 37 0 0 0 0 0
66 258 140 32 123 76 72 172 397 454 556 326 150 56 78 156 191 155 34 72 51 27 14 86 145 95 11 2 101 328 455 507 491 670 532 913 554 506 558 571 485 392 436 155 119 90 14 1 0 0 0 0 0 0 0 0 0 0 0 0 0 0 0 0 0 0 0 0 0 0 0 0 0 0 0 0 0 0 0 0 0 0 0 0 0 0
Wind_Speed
nan nan nan nan nan nan nan nan nan 19 21 25 13 9 16 16 15 15 14 14 13 20 19 19 20 19 17 14 13 14 11 10 nan nan nan nan nan nan nan nan nan nan nan nan nan nan nan nan nan 4 4 3 2 3 3 2 3 2 3 3 2 1 1 2 2 5 5 4 8 5 5 4 7 6 6 8 11 12 9 7 6 7 5 7 6 6
nan nan nan nan nan nan nan nan nan nan nan 21 19 16 18 16 14 11 8 15 14 19 23 18 17 18 18 15 13 14 13 9 nan nan nan nan nan nan nan nan nan nan nan nan nan nan nan nan nan nan 4 4 4 3 2 2 2 2 3 3 3 2 2 2 1 2 5 4 5 6 8 7 7 6 7 9 12 13 8 6 7 8 6 7 6 5
nan nan nan nan nan nan nan nan nan nan nan 22 21 18 20 19 19 20 15 14 21 27 20 15 18 21 21 17 13 15 12 11 9 nan nan nan nan nan nan nan nan nan nan nan nan nan nan nan nan nan 4 4 4 3 2 3 2 3 2 1 1 2 2 1 2 1 2 4 3 4 7 7 5 10 9 8 11 14 8 8 8 8 6 7 6 6
nan nan nan nan nan nan nan nan nan nan nan 24 24 17 23 18 15 14 9 14 27 25 21 23 23 27 30 31 27 16 13 26 27 26 13 12 nan nan nan nan nan nan nan nan nan nan nan nan nan nan 5 4 5 3 3 3 3 3 3 1 1 1 1 1 1 1 1 2 3 3 6 6 6 7 6 6 9 14 10 8 7 9 7 7 7 7
nan nan nan nan nan nan nan nan nan nan nan 26 nan 21 23 20 20 15 8 14 25 29 26 28 28 26 27 27 26 27 26 24 23 29 30 12 14 nan nan nan nan nan nan nan nan nan nan nan nan nan 6 3 5 3 3 3 3 2 5 2 3 1 3 3 1 2 2 1 3 3 6 6 5 6 7 6 7 9 8 7 10 8 8 9 7 5
nan nan nan nan nan nan nan nan nan nan nan 13 nan 23 20 22 nan 8 10 9 18 27 20 22 26 22 23 21 23 22 18 22 21 23 22 14 10 nan nan nan nan nan nan nan nan nan nan nan nan nan 7 5 5 4 4 3 3 4 4 3 3 2 3 3 3 4 1 1 1 2 1 4 4 4 7 5 6 6 8 10 8 7 8 8 6 5
nan nan nan nan nan nan nan nan nan nan nan nan 25 22 24 27 14 7 6 12 12 15 14 12 23 nan 21 19 21 21 20 20 21 21 16 20 16 8 nan nan nan nan nan nan nan nan nan nan nan nan 7 5 5 4 4 4 4 7 5 3 3 2 3 4 4 4 2 1 2 1 2 3 2 3 3 4 3 6 4 6 6 7 6 6 6 5
nan nan nan nan nan nan nan nan nan nan nan nan 20 22 22 28 24 16 8 2 13 15 15 13 21 16 11 13 14 17 19 18 20 20 18 18 17 9 nan nan nan nan nan nan nan nan nan nan nan nan 7 6 6 6 5 5 5 8 6 3 3 3 3 3 4 3 2 3 2 2 4 4 1 1 1 3 3 2 2 2 6 3 4 3 7 6
nan nan nan nan nan nan nan nan nan nan nan nan nan 8 22 20 23 15 7 6 11 10 9 9 10 15 11 11 8 11 15 17 17 18 16 17 14 16 13 5 7 nan nan nan nan nan nan nan nan nan 8 8 8 7 7 7 8 10 7 5 4 4 4 6 5 4 3 4 4 4 2 4 4 3 1 1 1 1 1 3 3 2 4 1 3 5
nan nan nan nan nan nan nan nan nan nan nan nan nan nan 8 23 16 13 6 9 nan 9 7 5 7 13 11 13 13 12 12 10 13 15 17 16 12 11 12 6 6 8 nan nan nan nan nan nan nan nan 10 9 10 10 9 9 12 11 9 6 6 5 7 7 7 5 4 4 5 3 3 5 3 2 5 4 3 2 2 3 1 2 4 2 4 4
nan nan nan nan nan nan nan nan nan nan nan nan nan nan nan nan 17 14 12 13 13 10 nan 2 6 7 11 7 6 10 8 4 11 18 21 17 12 10 7 4 6 6 8 9 nan nan nan nan nan 14 nan 10 13 12 12 11 14 12 11 8 7 7 7 9 8 6 5 3 5 5 4 5 2 4 5 5 4 3 4 1 4 2 1 2 1 3
nan nan nan nan nan nan nan nan nan nan nan nan nan nan nan nan nan nan 19 15 11 9 nan nan 3 3 nan nan 2 5 6 3 6 7 9 10 10 11 12 8 6 6 7 8 8 nan nan 15 15 15 13 nan 15 14 14 12 13 13 13 11 9 8 8 11 9 8 6 5 5 8 6 7 4 4 6 6 2 1 3 3 2 3 2 2 1 3
nan nan nan nan nan nan nan nan nan nan nan nan nan nan nan 18 nan 20 20 nan nan 15 20 13 10 5 10 17 5 10 6 3 2 4 4 3 3 6 8 8 10 9 7 8 10 11 nan 13 14 15 15 16 18 16 16 15 14 17 15 13 12 9 10 11 11 9 7 7 6 9 10 7 6 5 6 6 3 1 3 4 2 3 2 4 1 1
nan nan nan nan nan nan nan nan nan nan nan nan nan nan nan nan nan nan nan nan nan nan 21 20 20 10 18 18 13 7 8 1 4 5 4 3 2 2 5 6 7 9 10 9 10 10 10 12 13 13 15 17 18 16 15 17 18 19 16 14 12 11 12 12 12 12 8 9 7 10 10 7 6 5 5 6 5 3 5 4 3 3 3 4 4 4
nan nan nan nan nan nan nan nan nan nan nan nan nan nan nan nan nan 21 nan nan 17 21 nan 13 nan 9 10 14 22 3 4 2 5 6 6 5 6 5 2 5 4 8 11 12 12 11 11 11 12 13 15 16 17 18 16 20 22 20 17 15 14 13 13 13 13 13 12 9 8 10 9 8 7 6 6 7 4 4 4 4 4 2 3 3 4 5
nan nan nan nan nan nan nan nan nan nan nan nan nan nan nan nan nan nan 26 nan 14 18 20 12 9 8 5 8 13 20 15 10 6 9 12 10 9 8 6 1 3 2 6 12 13 13 13 13 14 14 16 15 15 19 19 20 23 19 20 18 16 15 14 14 13 14 13 11 10 8 10 9 9 8 8 6 4 6 3 5 5 4 6 6 6 2
nan nan nan nan nan nan nan nan nan nan nan nan nan nan nan nan nan nan nan nan nan nan nan 16 15 13 6 9 5 9 14 21 18 8 6 8 9 11 8 5 2 4 1 7 11 13 15 16 15 16 17 15 15 18 18 22 23 23 23 20 19 16 15 15 15 15 15 12 11 8 9 10 10 9 9 5 5 5 5 7 7 4 8 8 6 3
nan nan nan nan nan nan nan nan nan nan nan nan nan nan nan nan nan nan nan nan nan nan 19 nan nan nan 9 12 10 10 10 17 12 4 5 7 11 12 9 8 5 4 5 4 7 10 13 15 16 19 17 17 16 18 20 25 25 24 23 21 20 18 16 17 16 17 16 14 11 10 10 11 11 9 8 7 5 4 6 7 7 7 9 9 6 4
nan nan nan nan nan nan nan nan nan nan nan nan nan nan nan nan nan nan nan nan nan nan nan nan nan 22 13 13 11 10 12 7 4 5 7 10 11 11 9 10 8 7 8 10 12 12 11 12 15 20 19 19 17 19 21 25 26 25 24 21 20 19 18 18 18 19 18 16 14 13 11 10 11 10 9 8 6 7 7 5 7 7 7 8 8 10
nan nan nan nan nan nan nan nan nan nan nan nan nan nan nan nan nan nan nan nan nan 24 nan nan nan nan nan 10 18 21 7 3 4 7 10 13 12 12 12 11 11 14 19 15 11 10 8 11 16 19 19 18 19 21 21 23 22 22 22 23 22 20 19 19 18 20 19 17 15 16 15 13 13 12 10 12 10 9 8 6 7 4 9 7 11 9
nan nan nan nan nan nan nan nan nan nan nan nan nan nan nan nan nan nan nan nan nan 25 23 nan 18 14 9 12 19 16 6 2 5 8 9 10 10 11 13 13 16 17 11 9 11 10 10 14 15 18 21 21 20 22 22 21 20 21 21 23 21 21 20 19 19 21 19 18 17 16 16 13 13 12 12 11 14 10 9 8 7 5 6 10 10 9
nan nan nan nan nan nan nan nan nan nan nan nan nan nan nan nan nan nan nan nan nan nan nan nan nan 15 12 16 15 15 16 14 8 9 10 10 9 8 11 15 16 14 13 16 18 23 22 21 13 22 25 23 21 24 23 20 20 21 19 21 19 20 19 21 21 23 20 18 19 16 16 14 14 13 15 13 13 13 11 8 9 7 7 9 8 8
nan nan nan nan nan nan nan nan nan nan nan nan nan nan nan nan nan nan nan nan nan nan nan nan 15 16 16 18 13 11 21 20 13 12 11 12 9 9 12 18 17 19 24 25 29 30 26 21 21 31 34 32 27 29 24 23 23 20 23 25 21 19 19 20 19 22 21 19 19 18 17 17 15 15 14 14 14 13 12 12 10 11 9 7 7 8
nan nan nan nan nan nan nan nan nan nan nan nan nan nan nan nan nan nan nan nan nan nan nan nan nan 19 16 16 15 18 18 20 15 12 9 11 11 11 17 20 16 24 30 28 25 19 23 26 24 25 28 28 30 32 30 29 25 27 26 25 25 25 18 17 18 19 20 19 20 19 18 17 17 16 14 14 15 13 13 13 12 13 11 9 8 8
nan nan nan nan nan nan nan nan nan nan nan nan nan nan nan nan nan nan nan nan nan nan nan nan nan nan 16 18 23 28 17 14 13 9 11 13 13 14 19 18 17 24 24 18 15 19 28 34 30 25 29 32 32 28 25 28 20 20 24 25 23 24 20 16 17 18 19 19 18 18 17 17 17 16 17 17 18 14 13 13 12 13 12 11 10 10
nan nan nan nan nan nan nan nan nan nan nan nan nan nan nan nan nan nan nan nan nan 16 nan nan nan 23 22 20 26 29 23 9 8 13 11 14 17 18 20 19 19 23 19 17 17 19 24 29 29 27 27 28 29 27 26 29 25 21 25 24 22 21 19 15 17 18 19 18 17 18 17 16 16 15 16 17 19 19 15 13 12 11 13 12 11 12
nan nan nan nan nan nan nan 34 nan nan nan nan nan nan nan nan nan nan nan nan nan nan nan 19 27 21 23 22 29 26 25 25 17 10 11 13 16 19 22 24 22 21 16 14 13 11 16 23 26 28 28 27 29 29 28 30 29 26 26 25 23 23 23 19 20 18 21 19 18 18 17 16 16 16 16 19 20 20 18 16 15 nan nan 13 12 10
nan nan nan nan nan nan nan nan nan nan nan nan nan nan nan nan nan nan nan nan 29 nan nan 24 30 30 30 27 32 26 27 25 25 14 12 13 14 17 20 24 22 23 16 15 12 8 10 16 17 19 23 28 31 31 32 33 31 30 27 28 28 26 24 22 21 20 23 20 20 20 18 17 17 17 18 19 19 19 18 16 15 15 17 15 12 9
nan nan nan nan nan nan nan nan nan nan nan nan nan nan nan nan nan nan nan nan nan nan 28 35 39 39 36 33 34 26 21 22 19 19 16 14 13 17 20 20 21 23 24 23 18 14 15 14 16 19 19 22 29 34 37 36 37 34 29 28 29 27 26 26 26 26 23 21 21 21 22 20 19 19 19 18 18 18 16 14 13 14 15 14 12 nan
nan nan nan nan nan nan nan nan nan nan nan nan nan nan nan nan nan nan nan nan nan nan 41 43 45 49 40 32 30 30 23 22 21 23 24 25 21 19 23 22 21 21 22 23 22 21 19 17 19 20 18 21 22 28 34 39 38 33 29 29 30 30 29 30 27 27 25 23 23 23 24 23 22 21 22 22 21 19 18 15 15 14 17 19 19 17
nan nan nan nan nan nan nan nan nan nan nan nan nan nan 35 34 32 nan nan nan nan nan 40 49 50 47 41 35 32 30 29 26 23 26 29 25 23 20 26 26 26 22 25 27 24 23 23 22 23 22 22 22 22 24 28 33 37 37 34 31 32 34 36 33 28 27 27 26 26 25 26 25 25 25 24 24 23 22 21 21 21 21 21 21 20 20
nan nan nan nan nan nan nan nan 38 nan nan nan 35 46 51 51 47 53 42 39 37 38 42 50 46 42 38 35 32 31 30 29 30 29 32 29 27 30 26 30 32 29 29 27 27 26 24 24 24 24 23 23 22 23 25 27 32 36 34 34 34 33 34 33 35 33 31 30 29 29 26 26 26 26 26 25 24 22 23 23 22 22 22 22 22 23
nan nan 26 30 nan nan nan 46 nan 41 nan nan 39 41 49 49 52 51 51 55 54 48 41 nan 42 37 38 36 35 33 33 31 31 31 32 40 38 27 28 27 26 21 24 22 27 30 28 25 26 26 26 27 27 27 28 32 38 43 46 43 36 35 35 36 36 36 36 36 33 34 32 31 29 29 28 28 26 25 25 23 22 22 22 21 22 24
nan nan nan nan nan nan 32 nan nan 35 34 nan 36 40 43 54 56 53 52 54 52 50 49 46 39 37 41 41 40 45 40 34 32 33 34 36 38 37 36 33 23 17 26 31 33 32 32 31 29 29 30 28 27 27 25 27 29 34 38 42 44 45 45 47 47 47 45 45 43 40 39 37 34 31 30 28 28 28 27 25 23 23 22 21 22 23
nan nan nan nan nan nan 30 nan nan nan nan nan 43 nan 39 51 55 57 58 56 51 49 46 45 44 41 44 48 51 48 44 41 36 35 37 40 41 39 31 27 27 27 27 32 34 34 36 36 34 32 30 29 28 26 24 24 24 26 30 33 37 39 39 40 41 44 46 46 45 45 44 42 37 38 35 31 30 32 32 32 30 28 27 27 28 29
nan nan nan nan nan nan 23 30 nan nan nan nan nan nan nan nan 44 53 55 55 53 48 45 42 39 41 44 49 46 44 44 43 40 39 38 37 38 37 34 34 32 29 30 33 36 35 36 36 35 33 30 27 27 26 25 24 23 24 26 27 30 32 35 34 33 35 39 45 47 50 48 45 44 45 45 40 37 35 36 35 31 27 29 30 31 31
nan 22 nan 26 26 nan nan nan 34 34 28 29 nan nan 36 34 36 40 38 43 44 45 44 41 38 40 44 42 35 39 40 40 42 41 40 40 43 43 42 40 36 31 30 33 35 37 37 37 38 37 34 31 29 28 27 25 25 26 25 25 25 27 31 33 31 28 28 32 41 47 47 44 43 44 43 43 43 42 39 37 35 31 32 31 29 25
nan nan 22 nan 25 28 30 nan nan nan nan nan nan nan nan nan nan 30 37 nan 37 36 37 38 35 35 39 37 28 31 33 39 41 39 38 41 43 45 43 40 37 34 34 35 35 34 34 36 38 39 37 35 33 31 29 28 28 28 28 28 26 26 27 30 29 26 26 27 29 35 38 37 35 36 36 36 38 37 35 35 34 31 28 27 25 23
nan 20 18 nan nan nan nan nan nan nan nan 25 27 nan nan nan nan 28 nan nan nan 35 36 35 29 29 36 39 38 34 35 38 38 37 37 40 40 40 40 39 38 37 36 35 34 33 32 32 34 37 37 36 34 32 30 30 30 30 30 29 29 28 29 28 26 25 26 27 26 27 28 29 29 30 29 29 30 29 28 29 29 25 23 22 21 21
nan 14 nan nan nan 22 26 nan nan 31 nan 27 29 nan nan nan nan nan nan nan nan nan 39 36 35 29 30 32 35 nan 36 35 35 34 34 37 41 41 40 38 37 37 38 38 37 36 37 35 33 35 37 35 33 31 30 28 28 28 28 29 30 31 30 29 27 25 27 nan 29 27 26 27 27 29 29 27 26 25 25 25 23 19 21 21 20 20
nan nan nan nan nan nan nan nan nan nan nan nan 30 nan 32 nan nan nan nan nan 32 37 41 40 35 35 34 30 26 25 22 28 34 34 35 39 38 40 42 40 39 37 37 38 37 35 nan 37 37 nan 38 34 31 31 29 28 nan nan nan 31 32 34 33 30 29 29 29 31 31 31 31 30 29 30 29 27 27 25 26 24 23 24 24 22 19 20
nan nan 20 nan 23 24 25 28 28 nan nan nan 24 26 29 25 33 36 nan nan 30 35 39 40 39 35 34 34 32 31 26 31 30 31 33 35 36 37 40 41 42 nan nan nan 35 35 nan nan nan nan nan 33 32 32 31 31 31 30 nan nan 34 33 32 30 31 31 31 32 33 33 nan 33 29 27 27 25 26 26 28 29 28 25 25 23 22 21
nan 19 21 27 nan nan 21 23 nan nan 19 26 26 23 30 27 nan 29 28 33 34 35 37 38 37 34 35 37 37 38 38 33 30 nan nan 33 32 37 38 40 40 nan nan nan nan nan nan nan nan nan nan nan 35 34 32 33 34 34 33 34 nan 34 33 33 33 33 33 33 33 32 32 nan 32 31 27 27 27 nan 27 26 27 26 25 24 24 24
nan nan 19 23 nan nan nan nan nan 16 17 23 28 30 30 32 27 25 27 32 34 35 35 37 38 37 35 36 37 37 36 35 33 33 32 31 31 34 37 36 38 nan nan nan nan nan nan nan nan nan nan nan nan nan 35 34 36 37 37 37 34 34 33 33 32 33 34 33 33 33 33 33 33 34 nan nan nan nan 30 26 25 27 26 25 25 25
16 18 15 18 17 18 nan 14 14 14 nan nan 23 27 29 32 32 nan 34 35 35 37 36 37 38 40 39 35 35 36 35 35 35 35 34 35 35 36 38 38 39 39 nan nan nan nan nan nan nan nan nan nan nan nan 37 37 38 39 39 37 36 35 34 33 33 34 35 35 35 35 33 33 31 nan nan 34 nan nan 37 34 31 30 28 27 27 29
5 13 13 18 20 22 20 13 12 16 18 19 18 nan nan nan nan 30 30 29 31 34 36 38 39 39 39 38 36 36 36 36 35 37 36 37 38 39 36 39 39 38 nan nan nan nan nan nan nan nan nan nan nan nan nan 38 38 39 39 38 38 38 38 37 nan nan 35 35 35 35 35 34 35 35 35 35 34 35 nan nan 36 33 30 31 32 32
nan nan nan nan 15 13 15 12 14 15 nan nan nan nan nan nan nan nan nan nan nan 28 31 33 36 39 39 38 38 37 37 36 35 37 37 41 40 39 40 39 42 39 nan nan nan nan nan nan nan nan nan nan nan nan nan nan nan nan 39 39 39 39 38 37 nan nan nan 38 37 37 37 36 34 34 33 34 35 34 34 nan 35 33 32 nan nan 34
nan nan nan nan nan 10 15 13 14 nan nan nan nan nan nan nan nan nan nan nan nan nan nan nan 30 33 33 35 35 36 35 34 33 38 36 38 38 37 39 39 41 nan 41 42 nan nan nan nan nan nan nan nan nan nan nan nan nan nan nan nan nan nan 37 35 nan nan nan nan nan nan nan nan nan 34 36 40 41 39 38 37 33 36 38 nan nan nan
11 nan nan nan 13 12 12 10 nan 11 nan 16 18 18 17 nan nan nan nan nan nan nan nan nan nan nan 29 31 30 32 33 36 33 32 32 35 35 35 36 37 38 40 nan nan nan nan nan nan nan nan nan nan nan nan nan nan nan nan nan nan nan nan nan nan nan nan nan nan nan nan nan nan nan 44 41 nan 44 nan nan 39 nan nan nan nan nan nan
nan nan 12 nan 10 nan nan 9 nan nan nan 11 13 nan nan nan 14 nan nan nan nan nan 21 24 nan nan nan nan 26 27 28 30 29 28 29 32 34 34 35 35 36 38 38 nan nan nan nan nan nan nan nan nan nan nan nan nan nan nan nan nan nan nan nan nan nan nan nan nan nan nan nan nan nan nan nan nan nan nan nan nan nan nan nan nan nan nan
nan 17 8 nan 6 nan nan 12 13 17 17 14 13 nan nan 15 15 16 nan nan nan nan nan nan 22 nan nan nan 24 26 26 26 27 33 31 29 31 33 33 31 32 35 34 37 37 nan nan nan nan nan nan nan nan nan nan nan nan nan nan nan nan nan nan nan nan nan nan nan nan nan nan nan nan nan nan nan nan nan nan nan nan nan nan nan nan nan
Wind_Direction
nan nan nan nan nan nan nan nan nan 239 241 245 260 214 216 232 230 229 224 257 252 225 191 195 206 217 225 227 225 237 232 221 nan nan nan nan nan nan nan nan nan nan nan nan nan nan nan nan nan 251 234 241 246 246 285 316 297 279 271 288 285 35 51 90 96 92 111 133 136 112 76 109 113 122 110 107 100 94 87 76 79 85 77 83 85 86
nan nan nan nan nan nan nan nan nan nan nan 254 243 239 221 229 245 254 246 242 185 187 192 184 215 220 220 217 220 229 222 219 nan nan nan nan nan nan nan nan nan nan nan nan nan nan nan nan nan nan 238 255 272 248 300 297 301 296 314 328 331 4 44 60 62 157 120 97 125 139 129 119 117 93 91 95 95 87 83 111 98 90 87 94 91 106
nan nan nan nan nan nan nan nan nan nan nan 248 232 238 236 230 248 228 219 217 205 184 211 201 214 220 212 208 213 206 211 217 224 nan nan nan nan nan nan nan nan nan nan nan nan nan nan nan nan nan 250 258 273 290 299 278 288 291 299 246 309 3 30 44 307 265 134 161 182 152 113 117 108 126 101 92 94 102 84 81 97 105 107 102 101 87
nan nan nan nan nan nan nan nan nan nan nan 244 235 235 235 238 245 220 207 216 204 196 210 216 218 204 193 191 188 202 186 203 191 188 196 214 nan nan nan nan nan nan nan nan nan nan nan nan nan nan 246 245 265 264 268 286 305 293 246 291 302 342 345 268 299 288 296 242 228 204 106 101 112 90 88 78 85 83 80 74 84 97 98 91 90 87
nan nan nan nan nan nan nan nan nan nan nan 248 nan 239 243 245 242 216 227 225 213 203 223 225 217 214 197 192 198 175 198 199 200 204 175 194 214 nan nan nan nan nan nan nan nan nan nan nan nan nan 243 250 264 275 275 288 307 267 314 313 296 305 282 277 310 286 240 272 249 165 142 147 116 121 93 71 69 80 85 74 75 76 84 89 98 105
nan nan nan nan nan nan nan nan nan nan nan 258 nan 252 259 252 nan 216 260 253 203 211 219 235 224 214 214 200 192 196 191 208 193 213 183 179 222 nan nan nan nan nan nan nan nan nan nan nan nan nan 248 254 256 268 281 287 313 290 299 307 279 274 284 303 309 285 270 134 294 5 77 92 69 64 59 59 68 68 60 66 64 55 68 77 93 100
nan nan nan nan nan nan nan nan nan nan nan nan 250 263 257 250 265 288 296 229 205 208 215 205 224 nan 211 200 194 189 189 206 203 195 197 190 201 201 nan nan nan nan nan nan nan nan nan nan nan nan 246 256 262 265 283 285 291 281 294 298 291 286 269 297 285 294 278 234 175 68 1 52 37 90 101 127 105 61 73 115 63 72 66 92 85 93
nan nan nan nan nan nan nan nan nan nan nan nan 273 270 267 254 268 304 323 208 211 211 223 194 202 215 217 182 191 194 198 202 200 198 199 201 199 180 nan nan nan nan nan nan nan nan nan nan nan nan 257 254 258 264 271 269 271 272 257 273 269 251 267 281 285 299 283 263 231 184 211 194 159 357 105 125 111 155 104 97 86 57 114 89 137 119
nan nan nan nan nan nan nan nan nan nan nan nan nan 301 296 286 266 286 315 246 216 219 231 226 205 209 208 221 215 206 205 202 203 208 203 201 205 185 174 232 256 nan nan nan nan nan nan nan nan nan 254 259 260 263 264 263 258 265 262 255 245 243 247 266 287 275 278 259 260 235 208 245 201 190 202 109 171 9 302 116 124 153 66 355 94 103
nan nan nan nan nan nan nan nan nan nan nan nan nan nan 296 312 294 298 292 268 nan 196 225 255 234 207 211 226 229 208 204 203 208 216 212 212 208 203 183 180 257 257 nan nan nan nan nan nan nan nan 254 262 263 256 262 261 265 265 262 260 252 244 240 255 273 263 257 275 268 273 236 262 242 218 205 193 216 165 254 328 259 119 147 47 22 77
nan nan nan nan nan nan nan nan nan nan nan nan nan nan nan nan 318 322 288 261 237 200 nan 305 291 210 209 217 243 244 193 205 220 213 215 219 215 211 209 175 252 249 265 251 nan nan nan nan nan 257 nan 253 260 257 264 259 268 269 271 267 257 250 243 265 269 269 279 253 265 252 255 263 254 256 250 225 194 168 244 235 328 322 353 157 171 53
nan nan nan nan nan nan nan nan nan nan nan nan nan nan nan nan nan nan 254 238 239 204 nan nan 322 242 nan nan 151 82 171 235 250 234 236 238 225 219 214 227 240 260 252 259 249 nan nan 246 254 258 254 nan 256 262 267 264 268 272 269 265 256 252 245 262 267 271 271 255 251 262 250 257 246 265 259 256 249 168 296 266 254 273 261 229 105 128
nan nan nan nan nan nan nan nan nan nan nan nan nan nan nan 211 nan 219 225 nan nan 211 214 212 296 233 184 197 156 55 77 261 254 218 228 238 243 217 224 210 241 246 264 265 246 247 nan 255 259 267 259 251 254 252 267 271 269 266 265 268 263 254 252 258 268 267 270 256 256 253 250 244 226 239 268 271 266 254 269 278 264 275 290 293 326 49
nan nan nan nan nan nan nan nan nan nan nan nan nan nan nan nan nan nan nan nan nan nan 225 227 231 223 209 195 136 61 26 294 248 228 261 290 299 217 181 204 218 248 264 261 258 255 256 261 266 263 259 255 256 266 266 266 259 260 264 263 268 261 255 256 263 268 263 265 252 258 259 257 251 238 234 260 258 299 256 282 306 318 336 328 342 334
nan nan nan nan nan nan nan nan nan nan nan nan nan nan nan nan nan 214 nan nan 206 236 nan 239 nan 214 221 201 172 201 309 259 234 223 250 293 300 275 207 155 171 244 245 253 262 271 278 275 276 272 267 261 259 269 261 259 259 254 264 263 265 265 261 261 266 262 267 259 262 264 271 270 264 264 246 236 261 259 278 314 322 293 279 309 274 277
nan nan nan nan nan nan nan nan nan nan nan nan nan nan nan nan nan nan 224 nan 216 233 241 251 234 221 220 200 189 181 203 188 262 241 250 273 282 297 278 22 60 313 240 253 262 269 277 276 279 274 275 269 265 260 257 261 262 261 262 264 267 266 266 267 262 265 268 261 258 260 272 281 277 263 260 254 241 264 282 269 277 288 269 239 258 253
nan nan nan nan nan nan nan nan nan nan nan nan nan nan nan nan nan nan nan nan nan nan nan 265 261 244 248 252 240 174 187 205 223 243 278 290 307 314 310 317 7 339 291 236 259 262 267 267 274 272 282 280 279 268 262 257 257 256 262 266 266 264 265 272 268 269 266 264 267 269 272 277 272 273 282 280 303 312 286 277 277 283 284 276 276 299
nan nan nan nan nan nan nan nan nan nan nan nan nan nan nan nan nan nan nan nan nan nan 242 nan nan nan 279 243 258 265 213 200 181 241 291 299 312 318 318 316 305 315 289 254 263 259 268 262 263 266 276 275 280 280 264 257 259 255 262 265 268 271 268 272 272 275 271 268 268 266 270 273 279 288 297 299 305 290 266 261 261 257 274 281 282 282
nan nan nan nan nan nan nan nan nan nan nan nan nan nan nan nan nan nan nan nan nan nan nan nan nan 241 206 229 263 256 226 172 138 281 298 311 313 321 320 318 303 302 267 254 237 221 261 271 267 258 262 270 271 271 269 261 260 257 260 266 267 275 276 276 272 270 265 271 266 266 267 274 274 280 286 287 280 275 268 265 273 272 257 281 276 263
nan nan nan nan nan nan nan nan nan nan nan nan nan nan nan nan nan nan nan nan nan 222 nan nan nan nan nan 248 255 241 214 48 352 314 317 317 322 317 316 302 292 257 236 218 240 226 242 274 274 263 258 262 268 270 271 269 270 272 266 267 265 266 265 270 273 267 268 270 266 266 259 256 254 253 260 277 273 270 281 280 272 256 286 270 263 266
nan nan nan nan nan nan nan nan nan nan nan nan nan nan nan nan nan nan nan nan nan 232 231 nan 225 217 243 244 270 291 327 35 330 291 293 306 306 310 305 289 268 261 264 260 247 256 234 287 288 255 243 243 261 264 269 267 270 265 262 266 262 263 274 273 268 264 258 260 256 258 268 266 259 265 258 261 271 272 267 264 285 295 275 275 274 273
nan nan nan nan nan nan nan nan nan nan nan nan nan nan nan nan nan nan nan nan nan nan nan nan nan 246 252 251 231 288 307 256 191 283 284 282 275 282 280 285 273 274 271 254 245 234 218 204 261 253 236 240 240 254 261 263 261 259 262 269 266 270 265 262 257 262 256 254 263 257 260 263 264 259 255 260 259 262 268 265 266 254 258 282 270 267
nan nan nan nan nan nan nan nan nan nan nan nan nan nan nan nan nan nan nan nan nan nan nan nan 253 239 241 246 241 228 251 245 243 278 272 269 277 285 278 270 257 249 246 237 228 222 228 219 221 235 215 203 226 234 242 249 235 244 253 250 253 253 258 255 252 257 258 253 257 263 265 261 256 254 257 261 256 259 258 262 263 262 258 259 271 270
nan nan nan nan nan nan nan nan nan nan nan nan nan nan nan nan nan nan nan nan nan nan nan nan nan 233 222 231 248 224 223 264 269 269 262 264 266 264 269 263 249 247 248 239 227 223 210 226 240 243 227 230 237 242 232 216 216 231 241 247 244 230 236 254 251 255 256 257 256 258 256 255 255 255 245 247 252 250 255 252 253 253 255 258 250 252
nan nan nan nan nan nan nan nan nan nan nan nan nan nan nan nan nan nan nan nan nan nan nan nan nan nan 242 227 231 237 219 223 203 237 252 262 266 273 272 262 246 246 257 265 243 221 215 222 232 236 232 230 236 239 240 241 228 229 244 249 246 243 219 214 261 261 256 257 255 257 255 258 252 255 248 240 238 241 244 245 246 251 253 252 251 257
nan nan nan nan nan nan nan nan nan nan nan nan nan nan nan nan nan nan nan nan nan 265 nan nan nan 250 251 234 239 246 253 238 207 207 236 259 267 270 272 269 256 253 251 259 245 217 222 227 234 242 238 234 234 232 229 238 244 242 245 249 247 245 242 229 252 261 257 257 258 250 255 257 259 255 250 243 239 232 225 235 241 239 254 252 246 251
nan nan nan nan nan nan nan 172 nan nan nan nan nan nan nan nan nan nan nan nan nan nan nan 240 265 262 259 249 240 246 256 254 238 230 188 238 261 268 262 265 266 262 255 262 254 218 218 222 229 237 238 238 235 234 234 233 237 242 243 250 245 242 239 243 244 254 260 262 260 253 250 253 251 254 249 247 243 240 230 220 220 nan nan 261 250 241
nan nan nan nan nan nan nan nan nan nan nan nan nan nan nan nan nan nan nan nan 236 nan nan 237 262 262 252 251 252 249 255 255 266 247 210 196 241 259 273 277 279 275 276 272 277 277 245 245 247 236 236 240 238 238 235 231 238 240 238 240 241 240 248 254 264 255 259 262 261 256 255 250 247 244 244 246 248 242 235 227 223 220 227 242 259 264
nan nan nan nan nan nan nan nan nan nan nan nan nan nan nan nan nan nan nan nan nan nan 246 252 262 259 248 245 260 266 259 262 259 266 236 248 246 253 266 276 285 285 287 286 288 277 264 256 247 245 233 235 238 235 234 230 238 237 236 238 243 249 251 253 250 252 253 253 254 255 254 249 243 243 243 243 247 249 246 239 229 226 224 231 237 nan
nan nan nan nan nan nan nan nan nan nan nan nan nan nan nan nan nan nan nan nan nan nan 262 253 246 249 247 246 252 269 282 273 261 245 248 230 237 255 264 270 276 280 280 282 281 276 271 264 257 254 256 256 247 241 231 228 234 246 241 242 246 247 249 249 248 252 250 249 246 245 248 248 246 245 248 246 244 242 244 242 238 233 232 229 228 232
nan nan nan nan nan nan nan nan nan nan nan nan nan nan 197 194 193 nan nan nan nan nan 254 250 242 244 246 250 254 262 265 266 265 266 251 249 237 231 252 253 257 254 260 258 259 265 264 261 259 256 253 254 255 248 240 234 233 235 234 237 239 240 236 235 241 244 244 246 247 245 245 246 245 245 247 247 244 243 243 242 239 239 237 237 238 241
nan nan nan nan nan nan nan nan 200 nan nan nan 205 203 193 189 198 199 195 205 213 206 239 248 240 239 249 253 257 255 258 262 265 260 264 261 255 242 234 238 233 230 238 239 249 250 255 257 257 257 260 263 263 260 248 239 236 237 240 241 242 242 240 239 237 234 232 232 237 243 244 245 244 243 241 242 243 242 243 244 247 244 243 245 245 248
nan nan 210 205 nan nan nan 214 nan 199 nan nan 213 207 194 198 201 202 205 210 211 207 224 nan 242 242 249 256 255 254 252 253 251 250 257 257 259 258 249 250 258 254 255 249 244 238 239 248 250 251 254 251 250 251 247 243 238 234 233 234 240 248 251 248 244 240 234 236 233 230 230 235 241 241 238 237 238 241 242 245 246 250 252 253 252 253
nan nan nan nan nan nan 193 nan nan 205 213 nan 213 212 210 207 205 210 213 215 218 219 226 228 240 240 246 249 255 254 248 246 246 243 246 254 256 251 249 251 248 240 249 245 242 239 238 237 238 244 246 247 250 250 246 243 240 238 239 241 242 246 249 251 250 248 244 239 237 238 237 237 237 239 237 234 236 242 246 249 249 249 254 258 262 264
nan nan nan nan nan nan 197 nan nan nan nan nan 225 nan 215 213 214 218 219 219 219 222 229 231 224 229 239 244 244 253 252 244 241 241 241 244 250 252 250 254 262 266 262 255 249 246 243 240 239 240 240 238 242 244 243 244 244 243 242 242 246 247 248 251 251 250 247 244 240 239 238 237 240 241 236 232 236 243 247 248 245 244 243 245 250 252
nan nan nan nan nan nan 206 206 nan nan nan nan nan nan nan nan 222 221 219 219 223 226 221 227 235 239 241 245 247 251 249 249 246 244 243 243 247 251 254 259 262 262 263 263 262 257 254 252 248 247 246 241 240 240 241 245 247 248 246 244 246 246 247 248 251 254 253 247 241 240 241 242 243 242 242 241 243 246 249 249 250 250 247 245 247 249
nan 233 nan 209 199 nan nan nan 208 203 214 230 nan nan 208 216 216 222 223 218 220 225 225 226 221 233 240 241 245 246 244 244 242 238 240 244 246 246 248 251 254 254 255 261 263 261 260 261 258 256 253 252 252 252 253 252 252 251 248 248 248 249 250 250 253 255 249 242 237 235 237 242 245 245 243 243 244 245 246 248 250 253 249 245 245 249
nan nan 218 nan 205 204 208 nan nan nan nan nan nan nan nan nan nan 237 229 nan 219 224 225 227 226 216 229 246 237 240 239 239 239 241 240 242 244 247 248 250 253 253 253 256 259 261 262 265 265 259 254 253 253 254 254 255 256 255 255 254 252 253 252 252 254 255 251 244 234 229 228 232 238 241 243 243 244 243 243 244 243 243 242 241 240 239
nan 234 232 nan nan nan nan nan nan nan nan 219 214 nan nan nan nan 215 nan nan nan 232 231 224 227 234 222 213 232 235 242 240 240 238 236 240 244 245 249 252 254 255 253 251 257 261 258 257 265 267 261 256 254 255 258 259 260 260 261 260 260 259 259 258 259 257 253 248 243 235 231 232 233 236 241 244 244 243 240 239 240 240 242 240 236 233
nan 237 nan nan nan 206 209 nan nan 214 nan 218 216 nan nan nan nan nan nan nan nan nan 238 238 237 234 240 242 233 nan 222 237 244 243 243 246 248 250 248 251 255 258 258 256 257 259 261 264 265 259 255 255 254 253 254 255 256 259 261 262 263 263 262 261 262 263 260 nan 248 245 241 237 239 242 241 243 244 246 251 253 251 246 253 247 243 238
nan nan nan nan nan nan nan nan nan nan nan nan 210 nan 218 nan nan nan nan nan 228 235 245 246 243 244 245 246 245 243 239 235 241 246 245 247 253 254 256 258 257 258 260 259 260 262 nan 258 256 nan 249 246 246 248 251 251 nan nan nan 255 258 259 263 266 266 265 266 265 262 257 251 244 242 241 237 243 252 245 245 253 259 261 260 257 249 241
nan nan 195 nan 199 208 228 230 233 nan nan nan 202 210 206 217 232 238 nan nan 235 239 243 247 247 245 247 248 249 251 256 259 259 255 257 256 255 256 257 259 261 nan nan nan 261 258 nan nan nan nan nan 250 250 252 255 255 253 252 nan nan 252 256 259 262 261 264 266 265 266 267 nan 260 252 247 244 241 242 247 249 246 245 250 259 259 255 250
nan 203 204 194 nan nan 215 230 nan nan 227 204 203 206 207 224 nan 232 239 238 239 240 245 250 252 254 249 251 253 259 265 267 265 nan nan 260 258 260 261 260 260 nan nan nan nan nan nan nan nan nan nan nan 257 256 257 258 257 255 252 250 nan 249 249 249 254 258 262 267 269 270 272 nan 263 256 248 246 240 nan 242 247 250 252 256 259 260 252
nan nan 208 217 nan nan nan nan nan 225 217 211 217 225 223 233 240 240 239 245 244 245 246 250 249 250 251 255 257 258 260 265 266 266 265 263 261 259 263 260 259 nan nan nan nan nan nan nan nan nan nan nan nan nan 256 257 255 254 254 251 246 248 250 251 251 254 256 257 262 267 269 270 268 265 nan nan nan nan 247 240 239 243 245 252 254 256
195 222 226 223 220 233 nan 240 244 232 nan nan 232 235 234 236 240 nan 242 240 245 249 249 251 249 251 257 261 259 261 263 264 265 264 265 263 261 259 262 266 265 267 nan nan nan nan nan nan nan nan nan nan nan nan 258 257 256 254 254 254 253 250 248 247 249 251 252 255 258 259 261 266 269 nan nan 262 nan nan 258 255 251 251 248 244 249 255
194 237 239 245 246 251 254 258 254 237 232 237 238 nan nan nan nan 238 242 246 245 249 250 251 254 254 251 252 257 256 258 264 261 263 265 266 263 264 263 267 265 265 nan nan nan nan nan nan nan nan nan nan nan nan nan 260 258 257 256 258 257 256 254 252 nan nan 249 251 251 252 256 259 262 262 262 263 263 264 nan nan 260 256 250 253 252 248
nan nan nan nan 285 266 243 251 258 255 nan nan nan nan nan nan nan nan nan nan nan 249 253 253 254 257 259 259 254 257 254 250 260 265 261 256 258 262 266 265 270 267 nan nan nan nan nan nan nan nan nan nan nan nan nan nan nan nan 260 260 259 257 256 257 nan nan nan 248 251 253 252 251 253 259 263 264 266 263 263 nan 261 260 257 nan nan 249
nan nan nan nan nan 238 255 246 246 nan nan nan nan nan nan nan nan nan nan nan nan nan nan nan 249 254 258 262 265 265 267 266 261 259 259 261 261 259 256 260 263 nan 263 265 nan nan nan nan nan nan nan nan nan nan nan nan nan nan nan nan nan nan 259 258 nan nan nan nan nan nan nan nan nan 252 253 253 254 255 253 254 257 261 255 nan nan nan
226 nan nan nan 254 257 269 258 nan 234 nan 230 226 226 227 nan nan nan nan nan nan nan nan nan nan nan 247 251 254 259 266 268 265 267 269 267 265 262 261 259 261 264 nan nan nan nan nan nan nan nan nan nan nan nan nan nan nan nan nan nan nan nan nan nan nan nan nan nan nan nan nan nan nan 248 247 nan 259 nan nan 253 nan nan nan nan nan nan
nan nan 224 nan 243 nan nan 258 nan nan nan 234 235 nan nan nan 233 nan nan nan nan nan 229 237 nan nan nan nan 251 257 261 269 274 269 268 272 267 266 265 266 266 266 267 nan nan nan nan nan nan nan nan nan nan nan nan nan nan nan nan nan nan nan nan nan nan nan nan nan nan nan nan nan nan nan nan nan nan nan nan nan nan nan nan nan nan nan
nan 232 212 nan 244 nan nan 250 230 232 232 237 237 nan nan 232 234 234 nan nan nan nan nan nan 239 nan nan nan 245 258 261 263 271 275 269 265 274 276 277 274 273 273 271 271 270 nan nan nan nan nan nan nan nan nan nan nan nan nan nan nan nan nan nan nan nan nan nan nan nan nan nan nan nan nan nan nan nan nan nan nan nan nan nan nan nan nan